{"data":{"norad_id":67462,"intl_designator":"2026-008T","name":"STARLINK-36504","alt_names":[],"object_type":"PAYLOAD","status":"ACTIVE","operator":null,"country":"US","launch_date":"2026-01-14","launch_site_code":"AFETR","launch_vehicle":null,"mission":null,"orbit_class":"UNKNOWN","rcs_meters":null,"size_class":null,"mass_kg":null,"dimensions":null,"purposes":["comms"],"wikipedia_slug":null,"has_3d_model":false,"image_url":null,"decayed_at":null,"tle_current":{"epoch":"2026-05-25T00:02:10.351680Z","epoch_age_seconds":72226,"freshness":"FRESH","line1":"1 67462U 26008T   26145.00150870  .00023273  00000+0  85226-3 0  9992","line2":"2 67462  43.0010 134.2045 0000759 264.8630  95.2135 15.27591818 21245","mean_motion":15.27591818,"eccentricity":7.59e-5,"inclination_deg":43.001,"raan_deg":134.2045,"arg_perigee_deg":264.863,"mean_anomaly_deg":95.2135,"bstar":0.00085226,"rev_number":2124,"period_min":94.266019432162,"perigee_km":482.49294758548,"apogee_km":483.5344702631,"semimajor_km":6861.1507089243,"source":"CELESTRAK","updated_at":"2026-05-25T13:38:21.563018Z"}}}